Weather in Sovetsk

Russia / Kirov Oblast     57°35′15″N   48°57′34″E
temp.,
°C
wind,
m/s
gust,
m/s
humid.,
%
clouds,
%
prec.,
mm/h
press.,
hPa
HPBL,
m
17 april, sat
sat1700:00+2ene39790 0.0 1029150
03:00+1ene36810 0.0 1030110
06:00−1ene26850 0.0 1030112
09:00+4ene38920 0.0 1030358
12:00+8ene56655 0.0 1029887
15:00+9ne34544 0.0 10281190
18:00+7ne12715 0.0 102712
21:00+4nne22775 0.0 102713
18 april, sun
sun1800:00+3n22815 0.0 102617
03:00+2nne33841 0.0 102642
06:00+2nne26816 0.0 1026145
09:00+7ne677228 0.0 1026754
12:00+5ene6777100 0.0 10281036
15:00+7ene784171 0.0 10281438
18:00+4ene61051100 0.0 1030593
21:00+1ene51265100 0.0 1031376
19 april, mon
mon1900:000ene6136589 0.0 1032463
03:00−1ene6127019 0.0 1033398
06:000ene611630 0.0 1034538
09:00+3e79410 0.0 10351319
12:00+5e79360 0.0 10341549
15:00+6e68350 0.0 10341686
18:00+5ene59460 0.0 1034381
21:000e49640 0.0 1035179
20 april, tue
tue2000:000e411610 0.0 1036234
03:00−1e410600 0.0 1036251
06:000e511520 0.0 1036377
09:00+5ese68350 0.0 1036920
12:00+8ese67340 0.0 10341317
15:00+9se67310 0.0 10331458
18:00+6ese48440 0.0 1031238
21:00+2ese4116160 0.0 1032216
21 april, wed
wed2100:00+2se51456100 0.0 1032307
03:00+1ese61560100 0.0 1030306
06:00+2se8175599 0.0 1029585
09:00+6se91641100 0.0 1027888
12:00+10sse101433100 0.0 10261254
15:00+8sse91539100 0.0 10251187
18:00+6sse91756100 0.3 1025983
21:00+5sse101876100 0.8 1024871